Weather History for Cold Bay, AK

Change the Weather History Date:

Friday, March 7, 2014

  Actual Average Record
Temperature  
Mean Temperature 38 °F 30 °F  
Max Temperature 43 °F 35 °F 45 °F (1973)
Min Temperature 32 °F 25 °F -3 °F (1956)
Degree Days  
Heating Degree Days 27 35  
Month to date heating degree days 186 245  
Since 1 July heating degree days 5330 6469  
Cooling Degree Days 0    
Month to date cooling degree days 0  
Year to date cooling degree days 0  
Moisture  
Dew Point 29 °F    
Average Humidity 75    
Maximum Humidity 88    
Minimum Humidity 48    
Precipitation  
Precipitation T in 0.10 in 0.80 in (2000)
Month to date precipitation 0.04 0.69  
Year to date precipitation 8.49 6.83  
Snow  
Snow T in 0.40 in 7.00 in (1975)
Month to date snowfall 0.4 3.0  
Since 1 July snowfall 29.5 55.2  
Snow Depth T in    
Sea Level Pressure  
Sea Level Pressure 29.38 in    
Wind  
Wind Speed 6 mph (NNE)    
Max Wind Speed 18 mph    
Max Gust Speed 24 mph    
Visibility 10 miles    
Events Snow    
T = Trace of Precipitation, MM = Missing Value Source: NWS Daily Summary

Daily Weather History Graph

Daily Weather History Graph

Search for Another Location

Airport:

Trip Planner

Search our weather history database for the weather conditions in past years. The results will help you decide how hot, cold, wet, or windy it might be!

Date:

Astronomy

Mar. 07, 2014 Rise Set
Actual Time 8:25 AM AKST 7:39 PM AKST
Civil Twilight 7:49 AM AKST 8:15 PM AKST
Nautical Twilight 7:07 AM AKST 8:57 PM AKST
Astronomical Twilight 6:23 AM AKST 9:41 PM AKST
Moon 11:25 AM AKST (3/7) 2:56 AM AKST (3/7)
Length of Visible Light 12h 26m
Length of Day
11h 13m
Waxing Crescent, 43% of the Moon is Illuminated
Mar 7
Waxing Crescent
Mar 8
First Quarter
Mar 16
Full
Mar 23
Last Quarter
Mar 30
New

Hourly Weather History & Observations

Time (AKST) Temp. Windchill Dew Point Humidity Pressure Visibility Wind Dir Wind Speed Gust Speed Precip Events Conditions
12:53 AM 37.0 °F 31.0 °F 28.9 °F 73% 29.41 in 10.0 mi East 8.1 mph - N/A   Overcast
1:53 AM 36.0 °F 31.1 °F 28.9 °F 76% 29.41 in 10.0 mi NE 5.8 mph - N/A   Overcast
2:53 AM 35.6 °F 31.7 °F 30.2 °F 81% 29.41 in 10.0 mi NE 4.6 mph - N/A   Overcast
3:53 AM 33.1 °F - 28.9 °F 85% 29.41 in 10.0 mi Calm Calm - N/A   Overcast
4:53 AM 35.1 °F 32.2 °F 28.9 °F 78% 29.41 in 10.0 mi NE 3.5 mph - N/A   Overcast
5:06 AM 35.6 °F 30.7 °F 28.4 °F 75% 29.40 in 10.0 mi NNE 5.8 mph - N/A   Overcast
5:53 AM 33.1 °F - 28.9 °F 85% 29.40 in 10.0 mi Calm Calm - N/A   Overcast
6:53 AM 32.0 °F - 28.9 °F 88% 29.41 in 9.0 mi Calm Calm - 0.00 in Snow Light Snow
7:53 AM 35.1 °F 30.1 °F 28.9 °F 78% 29.41 in 9.0 mi North 5.8 mph - 0.00 in Snow Light Snow
8:53 AM 33.1 °F - 28.9 °F 85% 29.40 in 9.0 mi Calm Calm - 0.00 in   Overcast
9:53 AM 34.0 °F - 30.0 °F 85% 29.41 in 9.0 mi Calm Calm - 0.00 in   Overcast
10:53 AM 37.0 °F - 30.9 °F 79% 29.41 in 10.0 mi Calm Calm - N/A   Mostly Cloudy
11:53 AM 37.9 °F - 30.9 °F 76% 29.41 in 10.0 mi Calm Calm - N/A   Overcast
12:53 PM 41.0 °F - 30.9 °F 67% 29.41 in 10.0 mi Calm Calm - N/A   Mostly Cloudy
1:53 PM 42.1 °F - 27.0 °F 55% 29.40 in 10.0 mi Calm Calm - N/A   Overcast
2:53 PM 43.0 °F 38.8 °F 30.0 °F 60% 29.38 in 10.0 mi NNE 6.9 mph - N/A   Mostly Cloudy
3:53 PM 42.1 °F 37.1 °F 28.0 °F 58% 29.37 in 10.0 mi North 8.1 mph - N/A   Mostly Cloudy
4:53 PM 41.0 °F 33.5 °F 28.9 °F 62% 29.36 in 10.0 mi NNE 13.8 mph - N/A   Clear
5:53 PM 39.0 °F 31.8 °F 30.0 °F 70% 29.35 in 10.0 mi North 11.5 mph - N/A   Mostly Cloudy
6:53 PM 37.9 °F 31.5 °F 30.0 °F 73% 29.34 in 10.0 mi NNE 9.2 mph - N/A   Overcast
7:53 PM 35.1 °F 27.4 °F 28.9 °F 78% 29.34 in 10.0 mi North 10.4 mph - N/A   Overcast
8:53 PM 33.1 °F 23.0 °F 28.0 °F 82% 29.34 in 10.0 mi North 15.0 mph - N/A   Overcast
9:53 PM 33.1 °F 23.0 °F 28.0 °F 82% 29.34 in 10.0 mi North 15.0 mph - N/A   Partly Cloudy
10:53 PM 33.1 °F 23.0 °F 27.0 °F 78% 29.34 in 10.0 mi North 15.0 mph - N/A   Overcast
11:53 PM 32.0 °F 23.0 °F 26.1 °F 79% 29.34 in 10.0 mi North 11.5 mph - N/A   Overcast